Hourly Data Report for October 05, 2017

All times are specified in Local Standard Time (LST). Add 1 hour to adjust for Daylight Saving Time where and when it is observed.

ESQUIMALT HARBOUR
BRITISH COLUMBIA

48°25'55.100" N
123°26'21.600" W
3.00 m
1012710
71798
WPF

Download Data

Hourly Data (October 2017)
Hourly Data Report for October 5, 2017
Temp Definition
°C
Dew Point Temp Definition
°C
Rel Hum Definition
%
Wind Dir Definition
10's deg

Wind Spd Definition
km/h
Visibility Definition
km
Stn Press Definition
kPa
Hmdx Definition


Wind Chill Definition


Weather Definition


TIME
00:00 8.0 3.9 76 1 11   102.11     LegendNANA
01:00 7.7 4.1 78 2 8   102.14     LegendNANA
02:00 7.3 3.6 77 1 5   102.14     LegendNANA
03:00 7.0 3.4 78 2 7   102.14     LegendNANA
04:00 6.8 3.3 78 1 8   102.15     LegendNANA
05:00 6.8 3.8 81 1 7   102.15     LegendNANA
06:00 6.4 3.6 82 2 7   102.18     LegendNANA
07:00 6.6 3.9 83 1 7   102.21     LegendNANA
08:00 8.3 3.7 73 2 4   102.21     LegendNANA
09:00 11.9 5.5 65 33 1   102.22     LegendNANA
10:00 10.9 5.2 68 17 8   102.20     LegendNANA
11:00 11.1 6.2 72 20 9   102.18     LegendNANA
12:00 11.2 7.9 81 19 12   102.15     LegendNANA
13:00 11.8 8.3 79 20 15   102.12     LegendNANA
14:00 12.3 8.3 76 17 10   102.07     LegendNANA
15:00 13.4 7.1 66 16 9   102.02     LegendNANA
16:00 13.2 5.6 60 17 9   101.97     LegendNANA
17:00 12.9 6.9 67 16 9   101.94     LegendNANA
18:00 14.3 6.4 59 17 10   101.94     LegendNANA
19:00 13.3 5.8 61 17 8   101.91     LegendNANA
20:00 10.7 7.2 79 1 5   101.93     LegendNANA
21:00 10.0 6.3 78 1 7   101.90     LegendNANA
22:00 9.6 5.5 76 3 5   101.88     LegendNANA
23:00 8.6 5.5 81 2 8   101.88     LegendNANA

Notes on Data Quality.

Legend

  • E = Estimated
  • M = Missing
  • NA = Not Available
  • ‡ = Partner data that is not subject to review by the National Climate Archives
Date modified: